Regional Weather Roundup
Issued by NWS State College, PA

Home | Current Version | Previous Version | Text Only | Print | Product List | Glossary On
Versions: 1 2 3 4 5 6 7 8 9 10 11 12 13 14 15 16 17 18 19 20 21 22 23 24 25 26 27 28 29 30 31 32 33 34 35 36 37 38 39 40 41 42 43 44 45 46 47 48 49 50
000
ASUS41 KCTP 261403
RWRCTP

REGIONAL WEATHER ROUNDUP
NATIONAL WEATHER SERVICE STATE COLLEGE PA
900 AM EST FRI DEC 26 2014

Note: "fair" indicates few or no clouds below 12,000 feet with no
significant weather and/or obstructions to visibility.

* = STATION THAT DOES NOT REPORT PRECIPITATION /E.G. RAIN...SNOW...ETC/
    THUNDER OR FOG.

PAZ002>004-007>009-013>016-020>023-029>032-261500-
WESTERN PENNSYLVANIA

CITY           SKY/WX    TMP DP  RH WIND       PRES   REMARKS
ERIE           CLEAR     37  28  70 S15       30.22S
MEADVILLE      SUNNY     34  27  75 S8        30.22S
FRANKLIN*      PTSUNNY   34  27  75 S12       30.26R
NEW CASTLE       N/A     35  29  79 S9        30.29R
BEAVER COUNTY  SUNNY     32  28  86 S7        30.27R
BUTLER*        CLOUDY    36  28  75 S8        30.30R
PITTSBURGH INT MOSUNNY   32  29  88 S5        30.29R
PITTSBURGH     MOSUNNY   34  27  75 S7        30.29R
INDIANA*       CLOUDY    36  30  80 SW6       30.33R
LATROBE        CLOUDY    36  32  87 SW7       30.33R
WASHINGTON CO* NOT AVBL
$$

PAZ004>006-010>012-017>019-024>028-033>037-041-042-045-046-049>053-261500-
CENTRAL PENNSYLVANIA

CITY           SKY/WX    TMP DP  RH WIND       PRES   REMARKS
BRADFORD       CLOUDY    32  24  72 W8        30.21R
DUBOIS         CLOUDY    33  27  78 W7        30.26R
CLEARFIELD     CLOUDY    34  26  72 W6        30.27R
JOHNSTOWN      CLOUDY    32  26  78 W10       30.25R
ALTOONA        SUNNY     33  29  85 VRB3      30.29R
STATE COLLEGE  PTSUNNY   36  28  75 W9        30.29R
WILLIAMSPORT   SUNNY     34  28  79 E3        30.28R
SELINSGROVE    SUNNY     32  28  85 CALM      30.29S
FT INDIANTOWN  SUNNY     34  29  82 CALM      30.29S
CAPITAL CITY   SUNNY     35  29  78 W7        30.30R
HARRISBURG     SUNNY     35  29  78 NW7       30.30R
YORK           SUNNY     34  30  85 CALM      30.29R
$$

PAZ038>040-043-044-047-048-054-055-060>062-067>071-261500-
EASTERN PENNSYLVANIA

CITY           SKY/WX    TMP DP  RH WIND       PRES   REMARKS
SCRANTON       SUNNY     35  27  72 SW7       30.25R
MOUNT POCONO   SUNNY     32  25  75 W9        30.20R
ALLENTOWN      SUNNY     38  28  67 W5        30.29R
QUAKERTOWN*    NOT AVBL
READING        SUNNY     37  28  70 NW8       30.28S
LANCASTER      SUNNY     33  29  85 W5        30.29S
COATESVILLE    SUNNY     37  32  81 W3        30.28S
POTTSTOWN      SUNNY     37  29  72 CALM      30.29S
BLUE BELL      SUNNY     41  32  70 CALM      30.28R
DOYLESTOWN     SUNNY     37  29  72 W6        30.27S
WILLOW GROVE   NOT AVBL
NORTH PHILA    SUNNY     42  29  59 W6        30.31R
PHILADELPHIA   SUNNY     40  29  64 W9        30.31R
$$



USA.gov is the U.S. government's official web portal to all federal, state and local government web resources and services.